Location: Chuathbaluk
(61.5726°N, 159.2454°W)
Time: 07:54:53
(UTC+00:00)

XW-2F - Pass Details

Date: 17 January 2021
Orbit: 499 x 520 km, 97.5° (Epoch: 09 March)

Event Time Altitude Azimuth Distance (km) Brightness Sun altitude
Rises 04:00:15 0° 179° (S) 2,606 ? -12.7°
Reaches altitude 10° 04:02:23 10° 186° (S) 1,729 ? -13.0°
Maximum altitude 04:05:58 45° 260° (W) 709 ? -13.4°
Drops below altitude 10° 04:09:37 10° 335° (NNW) 1,755 ? -13.8°
Sets 04:11:48 0° 342° (NNW) 2,651 ? -14.0°
